This demonstration page uses our WeatherBlox Daily Observations layout. Learn more.

Left ArrowRight Arrow

34.16533, -84.80231

Hourly Observations for March 16, 2017

Temp ( °F °C ) Dew Point ( °F °C ) Humidity (%) Winds ( mph kmh ) Pressure ( in mb ) Visibility ( mi km ) Precip ( " mm )
12:53 am 00:53 Clear 29 -1.7 12 -11.1 49 49 undefined N/A 30.36 1028 10 16 0.00 0.00
1:53 am 01:53 Clear 27 -2.8 13 -10.6 55 55 undefined N/A 30.35 1028 10 16 0.00 0.00
2:53 am 02:53 Clear 26 -3.3 14 -10 60 60 undefined N/A 30.36 1028 10 16 0.00 0.00
3:53 am 03:53 Clear 25 -3.9 13 -10.6 60 60 undefined N/A 30.36 1028 10 16 0.00 0.00
4:53 am 04:53 Clear 24 -4.4 14 -10 65 65 undefined N/A 30.36 1028 10 16 0.00 0.00
5:53 am 05:53 Clear 24 -4.4 14 -10 65 65 undefined N/A 30.37 1028 10 16 0.00 0.00
6:53 am 06:53 Clear 23 -5 14 -10 68 68 undefined N/A 30.39 1029 10 16 0.00 0.00
7:53 am 07:53 Sunny 23 -5 15 -9.4 72 72 undefined N/A 30.41 1030 10 16 0.00 0.00
8:53 am 08:53 Sunny 28 -2.2 15 -9.4 58 58 undefined N/A 30.42 1030 10 16 0.00 0.00
9:53 am 09:53 Sunny 32 0 14 -10 47 47 undefined N/A 30.44 1031 10 16 0.00 0.00
10:53 am 10:53 Sunny 36 2.2 12 -11.1 37 37 undefined N/A 30.44 1031 10 16 0.00 0.00
11:53 am 11:53 Sunny 39 3.9 13 -10.6 34 34 undefined N/A 30.44 1031 10 16 0.00 0.00
12:53 pm 12:53 Sunny 41 5 11 -11.7 29 29 VRB 5 7 30.42 1030 10 16 0.00 0.00
1:53 pm 13:53 Sunny 45 7.2 12 -11.1 26 26 VRB 3 6 30.39 1029 10 16 0.00 0.00
2:53 pm 14:53 Sunny 48 8.9 11 -11.7 22 22 undefined N/A 30.37 1028 10 16 0.00 0.00
3:53 pm 15:53 Sunny 50 10 9 -12.8 19 19 VRB 5 7 30.34 1028 10 16 0.00 0.00
4:53 pm 16:53 Sunny 51 10.6 9 -12.8 18 18 VRB 5 7 30.32 1027 10 16 0.00 0.00
5:53 pm 17:53 Sunny 52 11.1 14 -10 22 22 VRB 3 6 30.31 1027 10 16 0.00 0.00
6:53 pm 18:53 Sunny 50 10 16 -8.9 26 26 Calm 30.32 1027 10 16 0.00 0.00
7:53 pm 19:53 Clear 45 7.2 21 -6.1 39 39 Calm 30.33 1027 10 16 0.00 0.00
8:53 pm 20:53 Clear 39 3.9 23 -5 53 53 Calm 30.33 1027 10 16 0.00 0.00
9:53 pm 21:53 Clear 36 2.2 24 -4.4 62 62 SSW 3 6 30.34 1027 10 16 0.00 0.00
10:53 pm 22:53 Clear 34 1.1 24 -4.4 67 67 Calm 30.35 1028 10 16 0.00 0.00
11:53 pm 23:53 Clear 32 0 24 -4.4 73 73 Calm 30.34 1028 10 16 0.00 0.00

Powered by AerisWeather